Home   Weather   Des Moines   Past weeks

Flag for USA Past Weather in Des Moines, Iowa, USA — Yesterday and Last 2 Weeks

Now
79 °F

Mostly cloudy.


Feels Like: 82 °F
Forecast: 64 / 79 °F
Wind: 6 mph from North

Location: Des Moines International Airport

Current Time: Aug 30, 2016 at 7:32:14 PM

Latest Report: Aug 30, 2016 at 6:54 PM


Visibility: 10 mi

Pressure: 30.08 "Hg

Humidity: 72%

Dew Point: 69 °F

Location of Des MoinesLocation

Past Weather in Des Moines — Graph

°F

Des Moines Temperature Yesterday

Maximum temperature yesterday: 85 °F (at 1:54 PM)
Minimum temperature yesterday: 72 °F (at 6:54 AM)
Average temperature yesterday: 76 °F

High & Low Weather Summary for the Past Weeks

 TemperatureHumidityPressure
High92 °F (Aug 18, 3:54 PM)97% (Aug 29, 6:54 AM)30.20 "Hg (Aug 29, 6:54 AM)
Low57 °F (Aug 21, 5:54 AM)40% (Aug 21, 5:54 PM)29.71 "Hg (Aug 19, 6:54 PM)
Average74 °F77%30.00 "Hg
* Reported Aug 15 5:54 PM — Aug 30 5:54 PM, Des Moines, Weather by CustomWeather, © 2016

Note: Actual official high and low records may vary slightly from our data, if they occured in-between our weather recording intervals... More about our weather records

Advertising

Des Moines Weather History for the Previous 24 Hours

Scroll right to see more
 ConditionsComfort  
Time TempWeatherWind HumidityBarometerVisibility
5:54 PM
Tue, Aug 30
81 °FCloudy.10 mph69%30.09 "Hg10 mi
4:54 PM81 °FBroken clouds.8 mph62%30.08 "Hg10 mi
3:54 PM83 °FMore clouds than sun.7 mph63%30.09 "Hg10 mi
2:54 PM82 °FCloudy.6 mph67%30.11 "Hg10 mi
1:54 PM81 °FMostly cloudy.6 mph69%30.13 "Hg10 mi
12:54 PM79 °FMostly cloudy.7 mph77%30.14 "Hg10 mi
11:54 AM78 °FCloudy.3 mph76%30.13 "Hg10 mi
10:54 AM77 °FCloudy.3 mph79%30.15 "Hg10 mi
9:54 AM76 °FCloudy.5 mph82%30.16 "Hg10 mi
8:54 AM74 °FFog.3 mph91%30.16 "Hg5 mi
7:54 AM72 °FFog.3 mph93%30.15 "Hg3 mi
6:54 AM71 °FFog.No wind96%30.14 "Hg3 mi
5:54 AM71 °FFog.3 mph96%30.14 "Hg5 mi
4:54 AM72 °FOvercast.3 mph93%30.13 "Hg7 mi
3:54 AM72 °FOvercast.3 mph93%30.15 "Hg9 mi
2:54 AM73 °FMostly cloudy.5 mph90%30.13 "Hg10 mi
1:54 AM73 °FPartly cloudy.6 mph90%30.13 "Hg10 mi
12:54 AM73 °FMostly cloudy.7 mph94%30.14 "Hg10 mi
11:54 PM
Mon, Aug 29
74 °FLight rain. Mostly cloudy.3 mph94%30.15 "Hg9 mi
10:54 PM73 °FMostly cloudy.5 mph94%30.17 "Hg10 mi
9:54 PM74 °FPartly cloudy.6 mph91%30.16 "Hg10 mi
8:54 PM75 °FPartly cloudy.5 mph85%30.14 "Hg10 mi
7:54 PM77 °FCloudy.6 mph79%30.12 "Hg10 mi
Weather by CustomWeather, © 2016

See weather overviewHow to use our weather pages